Voltar ao catálogo

ARIANE 5 R/B

AtivoHEO
NORAD 37607·ROCKET BODY·🇫🇷 France

Lançado May 20, 2011 de Guiana Space Centre

Loading…

Próximas Passagens (próximas 24 horas)

TLE

AtualizadoSource: Space-Track

Época: Sep 14, 2026, 11:38 UTC

1 37607U 11022C   26257.48520468  .00630258  18992-6  42157-3 0  9999
2 37607   2.4792 352.3348 5183728 215.1599  95.7835  5.52566561180178

Acompanhe ARIANE 5 R/B em tempo real com AllMySat

Download on the App Store